Wind_Speed
33 32 32 34 34 34 32 32 31 29 30 27 26 26 25 24 24 23 22 20 20 19 18 20 20 19 20 19 18 16 14 13 12 11 10 9 8 8 7 6 6 6 5
37 38 38 38 37 37 38 37 35 35 34 33 31 30 29 28 27 26 26 25 22 22 22 21 21 21 21 21 21 20 18 16 15 14 13 11 11 11 10 9 8 7 7
40 41 42 42 43 42 41 38 42 42 40 38 37 35 33 32 31 30 29 28 28 26 26 24 23 23 23 23 22 22 22 20 18 17 16 15 14 14 15 13 12 10 9
43 44 45 45 45 47 47 45 43 41 43 44 41 39 38 37 36 33 33 33 33 32 30 29 27 26 25 25 24 24 23 23 22 21 20 19 17 16 16 15 13 13 12
46 48 49 49 48 49 50 49 49 47 44 43 44 43 42 41 39 38 38 37 36 35 35 35 33 30 28 27 27 25 25 25 25 23 23 23 22 19 19 17 16 16 15
47 49 51 53 53 53 53 52 52 51 49 45 41 42 46 44 42 42 41 41 40 38 40 39 38 32 32 32 31 28 27 25 26 28 26 25 25 24 23 22 20 19 18
46 48 51 54 56 57 56 55 54 54 53 50 46 45 45 45 46 46 42 43 43 40 40 35 39 38 35 37 45 34 30 27 28 29 31 30 28 28 28 27 25 24 23
48 51 53 55 56 57 58 57 54 54 54 51 49 48 47 46 44 43 44 44 42 39 42 38 33 30 34 30 35 40 35 30 30 31 34 36 35 32 31 30 29 28 27
43 42 43 45 49 55 57 57 55 52 52 51 48 48 48 50 46 47 45 43 41 39 39 35 33 32 31 30 31 32 28 25 32 34 33 40 42 39 37 35 34 32 31
34 35 34 33 37 42 50 54 53 52 48 49 47 46 47 44 41 39 37 34 36 35 33 35 28 32 31 32 33 32 32 33 36 39 37 39 37 41 42 41 38 39 36
25 25 26 28 29 31 35 45 50 50 48 46 45 44 44 44 43 44 43 42 40 41 39 37 39 39 34 32 36 34 33 36 36 38 38 39 32 37 44 39 41 49 47
23 25 26 28 31 32 32 35 38 46 48 45 44 42 41 41 41 41 44 44 44 41 41 37 37 37 38 40 37 35 34 37 40 40 39 40 42 41 45 44 44 45 46
24 25 25 25 27 29 29 28 28 32 40 46 43 41 38 37 37 38 40 43 43 42 37 34 34 36 37 39 40 35 37 42 42 40 43 41 44 43 45 44 43 44 38
24 23 24 25 26 26 26 23 21 20 26 33 40 40 38 36 34 35 36 39 41 42 42 44 42 41 41 41 45 43 40 40 40 44 47 48 45 44 44 43 46 47 44
23 21 20 22 24 25 24 21 17 12 17 22 27 32 35 33 33 33 33 34 36 39 39 38 41 43 47 48 50 48 48 47 48 47 47 47 47 47 46 47 46 43 44
22 20 18 18 20 22 21 19 15 10 10 14 18 23 27 29 29 30 29 24 25 33 36 32 33 36 39 42 44 41 42 44 47 49 48 48 49 49 49 48 47 48 46
23 22 20 18 17 18 19 16 14 10 8 8 11 14 18 19 21 23 25 27 29 29 31 31 33 32 34 37 38 37 37 38 39 41 44 44 46 48 53 52 50 49 50
22 23 22 20 19 18 17 16 13 9 7 6 7 9 12 15 18 20 22 24 25 26 29 32 31 31 33 34 37 38 38 38 40 41 42 43 42 42 44 48 56 55 53
20 21 21 20 18 16 15 14 12 10 9 7 8 9 11 13 15 17 18 20 22 24 26 29 31 31 33 34 36 35 36 36 37 38 41 42 45 45 43 45 48 55 56
19 19 19 18 17 15 13 11 10 9 8 7 8 8 10 12 14 16 17 19 21 23 25 27 30 31 32 32 34 35 32 32 35 35 37 40 43 43 46 44 44 46 53
18 18 18 18 18 17 15 13 10 7 7 7 8 10 11 13 15 17 18 20 21 22 24 25 25 26 26 26 27 29 32 31 29 35 38 37 39 41 41 46 41 43 48
17 17 17 16 16 15 15 14 12 10 9 9 9 10 11 12 14 15 16 18 21 22 23 23 23 24 26 27 28 30 32 33 32 28 29 33 32 36 40 39 45 43 33
17 17 17 16 16 15 14 14 14 14 14 12 12 11 13 13 13 14 15 18 19 20 22 24 25 27 28 29 30 32 32 33 33 32 31 31 34 35 33 33 38 36 36
18 18 17 17 16 16 16 16 15 15 14 14 14 14 14 15 16 17 18 19 19 18 19 22 25 27 27 29 30 30 29 30 32 32 32 30 31 31 31 36 36 36 36
21 20 20 19 19 18 18 18 17 17 17 17 16 17 18 19 19 20 21 21 21 21 21 23 25 26 26 27 28 29 29 29 28 27 28 29 28 30 32 31 31 34 36
24 24 24 22 21 21 21 21 21 21 20 19 19 20 20 20 21 22 22 23 23 24 24 25 26 27 27 27 27 27 27 26 26 27 29 31 31 31 30 30 32 31 28
Wind_Direction
276 273 271 270 269 268 270 269 268 270 271 265 266 267 267 268 270 273 275 275 275 274 273 274 273 271 273 275 276 276 276 279 285 287 292 290 297 298 302 309 316 325 324
273 273 272 270 267 267 264 263 263 264 264 266 266 265 266 266 265 266 269 272 270 272 271 272 272 272 272 273 274 275 276 275 277 281 284 288 284 284 289 297 303 306 309
275 273 271 270 270 267 264 262 262 260 259 259 261 264 264 265 264 263 264 266 269 269 271 269 269 269 270 270 272 274 275 274 273 274 277 280 282 281 285 287 294 298 300
276 273 272 270 268 267 266 264 261 260 263 259 258 257 257 260 263 264 265 262 265 271 268 268 267 265 266 267 268 271 274 275 272 271 271 272 273 274 278 280 286 289 293
276 275 274 271 269 267 266 265 262 262 260 261 261 256 253 256 258 261 264 264 264 266 269 266 262 263 263 264 265 265 268 273 274 270 270 270 269 270 271 272 274 278 280
275 274 273 272 270 268 266 264 263 262 260 259 259 261 256 253 255 258 260 265 266 267 270 269 264 263 269 265 264 263 265 267 271 272 268 267 268 268 266 266 267 269 272
280 278 274 272 269 268 265 262 259 258 258 257 255 257 259 258 253 256 258 261 265 268 270 278 284 287 270 264 261 265 266 269 271 274 274 269 265 265 265 265 265 266 267
286 283 280 276 272 269 266 264 261 259 258 257 255 254 256 256 257 259 260 260 265 266 270 275 274 261 277 278 259 263 265 269 280 282 281 278 275 270 267 266 266 266 266
291 290 288 284 278 270 266 263 261 258 257 256 256 256 256 258 264 263 263 265 267 267 265 270 266 266 272 269 272 282 269 259 272 282 286 288 279 277 276 273 272 270 268
303 300 296 292 285 280 269 260 259 258 255 254 253 254 256 258 260 259 261 265 263 267 264 272 271 269 267 264 267 267 270 266 265 267 269 275 271 275 280 281 279 277 270
300 301 303 299 298 293 284 271 258 255 256 258 255 253 254 256 254 256 258 259 262 267 268 272 274 271 270 270 267 267 267 267 267 269 271 275 269 266 276 271 281 277 272
323 318 311 305 301 297 288 279 270 258 251 253 257 257 256 258 259 258 261 263 264 266 267 267 268 271 275 273 266 270 272 272 272 272 270 268 270 276 276 278 278 278 275
335 329 327 321 314 308 303 290 277 267 255 249 250 256 259 258 261 261 260 261 262 261 265 266 264 265 266 272 277 275 271 268 268 270 265 271 272 274 276 277 272 272 277
344 331 328 330 330 324 317 305 288 273 261 251 247 248 254 257 258 262 264 265 266 265 262 262 263 267 271 272 275 273 274 273 271 268 269 271 271 270 270 272 268 269 269
349 338 330 335 340 338 332 324 305 283 266 250 241 242 246 250 253 255 260 265 269 270 267 264 265 267 271 271 270 275 275 274 271 271 272 272 271 270 269 267 268 268 264
0 356 346 341 344 348 345 340 331 302 273 264 250 241 240 244 247 251 255 258 261 265 269 267 264 264 267 272 279 280 278 276 276 275 273 271 269 267 266 267 267 264 262
10 7 3 357 352 350 355 353 350 342 315 276 256 251 249 250 252 255 259 263 264 264 265 270 272 273 274 278 280 281 281 280 279 277 275 275 272 269 265 262 263 263 262
14 14 12 7 360 357 358 0 0 349 332 304 281 271 262 259 261 263 265 265 266 268 271 275 277 278 277 277 279 280 281 280 281 279 276 274 274 271 269 267 261 261 258
11 11 12 12 9 4 358 358 360 358 352 333 311 293 283 279 277 276 278 279 279 278 280 283 286 286 286 288 286 285 285 285 282 280 279 278 274 271 273 268 264 260 260
5 6 5 5 8 10 7 359 351 346 339 330 318 305 295 288 283 280 280 282 283 284 284 285 286 287 288 289 290 291 288 287 288 284 282 281 278 277 271 273 272 268 267
354 356 357 358 359 0 1 4 358 343 325 303 290 283 280 279 279 279 279 281 283 285 287 289 292 292 293 293 292 293 295 296 294 295 286 282 277 278 277 272 283 272 272
342 344 346 347 348 351 351 350 348 343 333 323 319 312 305 294 285 287 291 292 289 288 291 295 297 298 297 297 299 298 305 305 300 300 302 287 284 283 279 277 270 289 281
331 333 333 334 336 339 339 338 338 339 336 333 331 324 318 316 310 306 302 304 304 293 293 297 299 298 297 297 298 297 297 299 301 299 300 293 298 295 281 288 288 294 298
319 320 321 322 325 326 327 326 326 324 323 320 317 313 309 310 310 308 305 306 308 306 300 296 299 303 301 297 296 299 300 300 303 306 305 302 296 298 292 293 292 287 287
310 311 311 313 314 315 313 311 312 313 311 309 307 310 311 307 304 303 304 305 305 304 302 301 302 302 301 300 299 301 303 303 303 303 303 303 299 293 293 294 294 290 285
306 307 306 305 304 305 305 305 305 305 305 304 306 306 303 303 304 303 303 302 302 301 300 300 300 299 300 301 301 301 302 302 303 305 304 303 300 298 295 295 293 290 290
Height
3149 3149 3148 3148 3149 3149 3149 3148 3147 3147 3146 3147 3147 3146 3145 3145 3145 3145 3145 3145 3144 3144 3143 3144 3144 3144 3145 3145 3145 3145 3144 3144 3143 3143 3142 3141 3141 3140 3140 3139 3138 3137 3136
3142 3141 3140 3140 3140 3140 3141 3142 3142 3141 3141 3140 3141 3141 3141 3140 3140 3140 3140 3140 3141 3140 3140 3140 3140 3141 3141 3142 3142 3142 3142 3142 3141 3141 3140 3139 3139 3139 3138 3138 3137 3136 3135
3134 3133 3132 3131 3131 3132 3131 3132 3132 3133 3133 3133 3134 3135 3134 3134 3135 3135 3135 3135 3135 3136 3136 3136 3136 3136 3137 3137 3138 3138 3139 3139 3138 3138 3137 3137 3136 3136 3136 3136 3136 3135 3134
3125 3123 3122 3122 3122 3120 3120 3121 3122 3123 3123 3124 3126 3127 3127 3128 3128 3128 3128 3129 3130 3130 3131 3131 3131 3132 3132 3132 3132 3133 3134 3134 3135 3134 3133 3133 3133 3133 3133 3133 3133 3133 3132
3115 3113 3111 3110 3111 3110 3110 3110 3111 3112 3113 3114 3115 3117 3118 3119 3120 3121 3121 3122 3123 3124 3124 3124 3125 3126 3126 3126 3127 3127 3128 3129 3130 3130 3129 3129 3129 3128 3129 3129 3129 3129 3129
3104 3102 3100 3098 3098 3098 3098 3099 3100 3100 3102 3104 3106 3106 3108 3110 3112 3112 3113 3114 3116 3118 3118 3119 3118 3120 3123 3121 3121 3120 3122 3122 3123 3124 3124 3124 3124 3124 3123 3124 3124 3124 3124
3093 3090 3087 3085 3084 3083 3083 3084 3086 3087 3089 3092 3096 3096 3097 3099 3101 3103 3105 3106 3107 3110 3110 3111 3110 3109 3111 3115 3114 3116 3116 3116 3117 3118 3119 3119 3117 3117 3117 3117 3118 3119 3119
3082 3078 3075 3073 3070 3069 3070 3070 3072 3075 3077 3081 3083 3086 3085 3089 3089 3094 3097 3099 3101 3102 3103 3103 3103 3103 3104 3104 3105 3110 3109 3108 3111 3112 3114 3114 3114 3113 3111 3111 3112 3112 3113
3070 3066 3062 3059 3057 3055 3055 3058 3058 3061 3064 3069 3073 3075 3076 3077 3082 3084 3088 3089 3091 3092 3095 3095 3095 3096 3096 3097 3098 3099 3099 3102 3104 3105 3105 3107 3108 3108 3106 3106 3106 3106 3106
3061 3057 3053 3049 3046 3043 3042 3043 3046 3049 3051 3054 3060 3064 3066 3071 3072 3076 3079 3080 3082 3084 3085 3086 3087 3088 3089 3090 3091 3092 3093 3095 3096 3095 3095 3097 3097 3099 3101 3100 3099 3100 3099
3055 3051 3046 3043 3039 3035 3033 3033 3034 3037 3041 3045 3048 3053 3057 3061 3065 3067 3067 3072 3074 3075 3079 3080 3078 3080 3082 3083 3085 3085 3085 3086 3087 3087 3086 3086 3086 3088 3088 3088 3091 3091 3091
3048 3044 3041 3037 3033 3029 3026 3024 3023 3025 3030 3034 3038 3043 3048 3052 3055 3059 3060 3063 3065 3068 3069 3070 3070 3071 3072 3073 3075 3076 3077 3077 3076 3076 3077 3077 3077 3077 3077 3077 3078 3078 3078
3045 3041 3037 3033 3029 3024 3020 3017 3015 3015 3018 3023 3029 3034 3039 3043 3046 3050 3051 3052 3054 3058 3060 3061 3062 3062 3063 3064 3064 3066 3066 3065 3066 3066 3067 3066 3065 3066 3066 3066 3066 3067 3066
3042 3040 3037 3032 3027 3021 3016 3012 3009 3008 3010 3013 3019 3024 3030 3034 3037 3040 3043 3044 3045 3047 3051 3052 3054 3055 3055 3055 3054 3055 3056 3056 3055 3054 3054 3053 3053 3055 3055 3055 3055 3056 3055
3042 3039 3035 3031 3026 3020 3015 3010 3006 3005 3006 3008 3011 3016 3021 3026 3029 3031 3034 3036 3037 3037 3040 3043 3044 3045 3043 3043 3042 3044 3043 3043 3043 3043 3042 3041 3041 3041 3042 3043 3044 3043 3044
3042 3037 3034 3029 3025 3020 3015 3010 3007 3005 3005 3007 3008 3011 3015 3018 3021 3024 3026 3028 3029 3029 3028 3032 3033 3033 3033 3032 3031 3034 3034 3032 3031 3029 3030 3029 3029 3028 3029 3030 3031 3031 3032
3042 3037 3033 3028 3025 3021 3016 3012 3009 3007 3007 3007 3008 3010 3013 3014 3016 3019 3021 3022 3023 3023 3022 3023 3024 3025 3025 3024 3023 3022 3022 3020 3019 3017 3017 3017 3016 3015 3015 3017 3018 3018 3019
3042 3037 3032 3028 3025 3022 3018 3015 3012 3010 3010 3009 3010 3011 3011 3012 3014 3015 3016 3016 3017 3018 3017 3016 3016 3017 3017 3016 3014 3013 3012 3011 3007 3007 3006 3005 3003 3001 3000 3001 3002 3002 3002
3042 3037 3033 3028 3025 3021 3018 3015 3013 3012 3011 3010 3010 3011 3011 3011 3011 3012 3012 3013 3013 3013 3012 3010 3009 3009 3008 3007 3004 3004 3002 3001 2999 2995 2992 2992 2990 2989 2987 2986 2986 2986 2987
3041 3037 3033 3028 3024 3020 3017 3015 3012 3011 3009 3009 3008 3008 3008 3008 3008 3008 3008 3007 3007 3005 3004 3003 3001 3000 2998 2998 2994 2992 2993 2991 2988 2986 2982 2979 2978 2977 2976 2976 2975 2975 2976
3040 3036 3033 3029 3025 3021 3017 3015 3012 3010 3009 3007 3006 3005 3004 3004 3004 3003 3003 3002 3001 3000 2998 2996 2993 2991 2990 2988 2986 2984 2980 2979 2978 2975 2973 2970 2967 2966 2964 2964 2963 2961 2962
3038 3035 3031 3027 3024 3020 3017 3014 3012 3009 3007 3005 3004 3003 3002 3001 2999 2998 2997 2996 2994 2991 2989 2987 2985 2984 2981 2979 2977 2975 2972 2970 2968 2966 2962 2960 2958 2957 2954 2954 2952 2948 2949
3036 3032 3029 3026 3023 3019 3016 3013 3011 3008 3006 3004 3002 2999 2997 2995 2994 2992 2990 2988 2986 2984 2983 2981 2979 2977 2974 2972 2970 2967 2963 2961 2958 2956 2954 2951 2949 2948 2945 2943 2943 2942 2940
3032 3029 3025 3022 3020 3017 3014 3011 3008 3005 3003 3001 2998 2996 2993 2991 2989 2987 2985 2984 2981 2979 2977 2974 2972 2970 2967 2964 2962 2959 2956 2953 2950 2947 2944 2942 2941 2938 2936 2934 2933 2931 2929
3027 3024 3021 3018 3015 3013 3010 3007 3005 3002 3000 2997 2995 2993 2991 2988 2985 2983 2981 2978 2975 2973 2971 2969 2966 2963 2960 2957 2954 2951 2948 2945 2943 2940 2938 2934 2932 2930 2928 2926 2924 2921 2920
3022 3020 3016 3013 3010 3008 3005 3003 3001 2998 2996 2993 2991 2989 2986 2983 2980 2977 2975 2972 2970 2967 2965 2962 2960 2957 2954 2951 2948 2945 2942 2939 2937 2935 2932 2929 2925 2922 2920 2917 2915 2913 2911